Weather in Incekum

Turkey     36°39′06″N   31°43′56″E
В апреле 2022 года жителям России запретили посещать сайт meteo.paraplan.net по решению Генеральной прокуратуры. Аудитория сайта уменьшилась в 10 раз. Владельцы сайта не видят смысла в поддержке погодного сервера в таких условиях. Сайт будет закрыт в октябре.
temp.,
°C
wind,
m/s
gust,
m/s
humid.,
%
clouds,
%
prec.,
mm/h
press.,
hPa
HPBL,
m
29 september, thu
thu2900:00+19ne11750 0.0 101311
03:00+19ne11743 0.0 101311
06:00+19ene11660 0.0 101211
09:00+23wsw11530 0.0 1013308
12:00+29sw32400 0.0 1013893
15:00+28ssw324713 0.0 1013886
18:00+26sw11601 0.0 1013196
21:00+22ne11670 0.0 101411
30 september, fri
fri3000:00+22nne11560 0.0 101411
03:00+22ene22463 0.0 101412
06:00+22ne11450 0.0 101412
09:00+27s21340 0.0 1016285
12:00+30ssw32350 0.0 1016799
15:00+30ssw32400 0.0 1015728
18:00+26wsw22530 0.0 1016122
21:00+24ne22590 0.0 101713
1 october, sat
sat100:00+24nne11480 0.0 101611
03:00+24ne22360 0.0 101515
06:00+24ne32340 0.0 101521
09:00+30sse11270 0.0 1016266
12:00+32sw33310 0.0 1015992
15:00+32ssw33310 0.0 1013679
18:00+28ssw22480 0.0 101356
21:00+25ne22390 0.0 101317
2 october, sun
sun200:00+25ne33240 0.0 101229
03:00+24ne43250 0.0 101235
06:00+24ne43256 0.0 101134
09:00+31ne22173 0.0 1010231
12:00+34ssw32145 0.0 10091252
15:00+32ssw33181 0.0 1007788
18:00+28se22310 0.0 100642
21:00+24e33300 0.0 100428
3 october, mon
mon300:00+22e33300 0.0 100341
03:00+21ene22430 0.0 100325
06:00+22e22280 0.0 100411
09:00+26s12370 0.0 1005362
12:00+28s55500 0.0 10051033
15:00+28sse56510 0.0 1003888
18:00+24s23760 0.0 1004338
21:00+21ne22820 0.4 100518